Home   Weather   Pensacola   Past weeks

Flag for USA Past Weather in Pensacola, Florida, USA — Yesterday and Last 2 Weeks

Now
81 °F

Passing clouds.


Feels Like: 87 °F
Forecast: 76 / 89 °F
Wind: No wind

Location: Pensacola Regional Airport

Current Time: Jul 22, 2017 at 4:01:23 am

Latest Report: Jul 22, 2017 at 2:53 am


Visibility: 10 mi

Pressure: 29.98 "Hg

Humidity: 82%

Dew Point: 75 °F

Location of PensacolaLocation

Past Weather in Pensacola — Graph

°F

Pensacola Temperature Yesterday

Maximum temperature yesterday: 94 °F (at 12:27 pm)
Minimum temperature yesterday: 80 °F (at 4:53 am)
Average temperature yesterday: 86 °F

High & Low Weather Summary for the Past Weeks

 TemperatureHumidityPressure
High97 °F (Jul 20, 1:53 pm)94% (Jul 9, 3:38 am)30.18 "Hg (Jul 9, 3:38 am)
Low75 °F (Jul 16, 6:57 am)44% (Jul 20, 2:53 pm)29.92 "Hg (Jul 16, 4:53 pm)
Average83 °F74%30.05 "Hg
* Reported Jul 7 2:53 am — Jul 22 2:53 am, Pensacola. Weather by CustomWeather, © 2017

Note: Actual official high and low records may vary slightly from our data, if they occured in-between our weather recording intervals... More about our weather records

Advertising

Pensacola Weather History for the Previous 24 Hours

Scroll right to see more
 ConditionsComfort  
Time TempWeatherWind HumidityBarometerVisibility
2:53 am
Sat, Jul 22
81 °FPassing clouds.No wind82%29.98 "Hg10 mi
1:53 am79 °FClear.No wind84%29.98 "Hg10 mi
12:53 am80 °FClear.No wind81%29.99 "Hg10 mi
11:53 pm
Fri, Jul 21
80 °FPassing clouds.6 mph85%30.00 "Hg10 mi
11:19 pm81 °FLight rain. Partly cloudy.7 mph85%30.01 "Hg10 mi
10:39 pm83 °FThundershowers. Clear.No wind79%30.02 "Hg10 mi
10:24 pm83 °FThunderstorms. Clear.No wind79%30.02 "Hg10 mi
9:53 pm85 °FThundershowers. Clear.5 mph75%30.03 "Hg10 mi
9:32 pm85 °FThundershowers. Clear.5 mph72%30.03 "Hg10 mi
8:53 pm85 °FPassing clouds.3 mph72%30.03 "Hg10 mi
7:53 pm86 °FPassing clouds.5 mph70%30.01 "Hg10 mi
6:53 pm88 °FPassing clouds.8 mph67%30.01 "Hg10 mi
5:53 pm88 °FScattered clouds.7 mph70%29.99 "Hg10 mi
4:53 pm87 °FPassing clouds.8 mph63%29.99 "Hg10 mi
3:53 pm89 °FThunderstorms. Partly sunny.15 mph68%30.00 "Hg10 mi
3:23 pm92 °FThundershowers. Scattered clouds.12 mph62%29.99 "Hg10 mi
2:10 pm91 °FThundershowers. Scattered clouds.8 mph64%30.00 "Hg10 mi
1:53 pm91 °FSunny.8 mph61%30.00 "Hg10 mi
12:53 pm91 °FPassing clouds.6 mph64%30.01 "Hg10 mi
12:27 pm94 °FThunderstorms. Passing clouds.9 mph60%30.02 "Hg10 mi
11:53 am91 °FThundershowers. Sunny.No wind61%30.04 "Hg10 mi
11:40 am91 °FThundershowers. Sunny.5 mph64%30.04 "Hg10 mi
10:53 am89 °FPassing clouds.10 mph72%30.06 "Hg10 mi
9:53 am87 °FSunny.5 mph75%30.06 "Hg9 mi
8:53 am86 °FSunny.No wind75%30.05 "Hg9 mi
7:53 am83 °FSunny.7 mph79%30.03 "Hg9 mi
6:53 am82 °FSunny.3 mph85%30.03 "Hg9 mi
5:53 am81 °FSunny.No wind85%30.01 "Hg10 mi
4:53 am80 °FClear.No wind87%29.98 "Hg8 mi
Weather by CustomWeather, © 2017

See weather overviewHow to use our weather pages